Regional Weather Roundup
Issued by NWS

Home | Current Version | Previous Version | Text Only | Print | Product List | Glossary On
Versions: 1 2 3 4 5 6 7 8 9 10 11 12 13 14 15 16 17 18 19 20 21 22 23 24 25 26 27 28
000
ASUS44 KBMX 260410
RWRAL

ALABAMA REGIONAL WEATHER ROUNDUP
NATIONAL WEATHER SERVICE BIRMINGHAM AL
1100 PM CDT TUE APR 25 2017

NOTE: "FAIR" INDICATES FEW OR NO CLOUDS BELOW 12,000 FEET
WITH NO SIGNIFICANT WEATHER AND/OR OBSTRUCTIONS TO VISIBILITY.

THE REMARK "TC" DENOTES TEMPERATURE IN DEGREES CELSIUS.

ALZ001>011-014-016>018-020-260500-
NORTH ALABAMA

CITY           SKY/WX    TMP DP  RH WIND       PRES   REMARKS
MUSCLE SHOALS  CLEAR     65  55  70 S5        29.71F
HUNTSVILLE     CLEAR     63  59  87 SE3       29.73S
DECATUR        CLEAR     59  56  89 S8        29.73S
HALEYVILLE     FAIR      65  57  75 S9        29.75F
GADSDEN        CLEAR     59  58  96 CALM      29.76S
$$

ALZ012-013-022-023-030>036-040>044-260500-
WEST CENTRAL ALABAMA

CITY           SKY/WX    TMP DP  RH WIND       PRES   REMARKS
TUSCALOOSA     CLEAR     62  59  90 CALM      29.74S
$$

ALZ015-024>027-033>036-040>044-260500-
CENTRAL ALABAMA

CITY           SKY/WX    TMP DP  RH WIND       PRES   REMARKS
BIRMINGHAM     CLEAR     65  57  75 CALM      29.78S
MONTGOMERY     CLEAR     63  55  75 CALM      29.77S
SHELBY CO ARPT CLEAR     62  60  93 CALM      29.76S
MAXWELL AFB    CLEAR     63  58  85 CALM      29.76S
GREENVILLE     FAIR      66  56  70 SW8       29.78S
$$

ALZ019-021-028-029-037-038-045>048-260500-
EAST CENTRAL ALABAMA

CITY           SKY/WX    TMP DP  RH WIND       PRES   REMARKS
ANNISTON       CLEAR     61  60  97 CALM      29.77S
ALEXANDER CITY CLEAR     58  56  91 CALM      29.78S
AUBURN         CLEAR     65  55  70 CALM      29.80S
$$

ALZ051>064-260500-
SOUTHWEST ALABAMA

CITY           SKY/WX    TMP DP  RH WIND       PRES   REMARKS
MOBILE         CLEAR     64  56  75 S6        29.80S
BROOKLEY FIELD CLEAR     67  59  75 VRB3      29.81S
EVERGREEN      PTCLDY    64  56  75 S5        29.80R
$$

ALZ049-050-065>069-260500-
SOUTHEAST ALABAMA

CITY           SKY/WX    TMP DP  RH WIND       PRES   REMARKS
DOTHAN         CLEAR     66  59  78 SW8       29.84R
OZARK          CLEAR     65  58  78 S5        29.80S
TROY           CLEAR     60  57  89 S3        29.80R
EUFAULA        FAIR      59  55  87 CALM      29.78R
$$




USA.gov is the U.S. government's official web portal to all federal, state and local government web resources and services.